Flag for U.S.A. Weather past 2 weeks in Tulsa, Oklahoma, U.S.A.

Now
93 °F

Partly sunny.


Feels Like: 103 °F
Forecast: 74 / 92 °F
Wind: 12 mph from South

Location: Tulsa International Airport

Current Time: Jul 5, 2015 at 4:18:39 PM

Latest Report: Jul 5, 2015 at 3:53 PM


Visibility: 10 mi

Pressure: 29.88 "Hg

Humidity: 54%

Dew point: 74 °F

Location of TulsaLocation

Historic Weather in Tulsa — Graph

°F

Tulsa temperature yesterday

Maximum temperature yesterday: 90 °F (at 2:53 PM)
Minimum temperature yesterday: 69 °F (at 5:53 AM)
Average temperature yesterday: 80 °F

Past Weeks' High & Low Weather Summary

 TemperatureHumidityPressure
High97 °F (Jun 30, 4:53 PM)97% (Jul 2, 11:53 PM)30.09 "Hg (Jul 2, 11:53 PM)
Low68 °F (Jun 27, 5:53 AM)34% (Jun 30, 4:53 PM)29.76 "Hg (Jul 2, 3:53 AM)
Average83 °F65%29.93 "Hg
* Reported Jun 20 2:53 PM — Jul 5 2:53 PM, Tulsa, Weather by CustomWeather, © 2015

Note: Actual official high and low records may vary slightly from our data, if they occured in-between our weather recording intervals... More about our weather records

Advertising

Tulsa weather history for previous 24 hours

 ConditionsComfort  
Time TempWeatherWind HumidityBarometerVisibility
2:53 PM
Sun, Jul 5
93 °FScattered clouds.15 mph54%29.90 "Hg10 mi
1:53 PM93 °FScattered clouds.16 mph54%29.91 "Hg10 mi
12:53 PM91 °FScattered clouds.10 mph60%29.94 "Hg10 mi
11:53 AM88 °FScattered clouds.7 mph65%29.95 "Hg10 mi
10:53 AM86 °FScattered clouds.6 mph67%29.96 "Hg10 mi
9:53 AM82 °FScattered clouds.12 mph74%29.97 "Hg10 mi
8:53 AM79 °FScattered clouds.12 mph79%29.97 "Hg10 mi
7:53 AM76 °FScattered clouds.13 mph85%29.96 "Hg10 mi
6:53 AM73 °FPassing clouds.12 mph90%29.96 "Hg10 mi
5:53 AM73 °FPassing clouds.10 mph88%29.95 "Hg10 mi
4:53 AM74 °FPassing clouds.9 mph85%29.93 "Hg10 mi
3:53 AM75 °FPassing clouds.7 mph79%29.93 "Hg10 mi
2:53 AM76 °FPassing clouds.5 mph80%29.93 "Hg10 mi
1:53 AM78 °FPassing clouds.8 mph71%29.93 "Hg10 mi
12:53 AM80 °FPassing clouds.10 mph69%29.94 "Hg10 mi
11:53 PM
Sat, Jul 4
81 °FPassing clouds.9 mph72%29.93 "Hg7 mi
10:53 PM78 °FPassing clouds.7 mph76%29.93 "Hg7 mi
9:53 PM80 °FPassing clouds.6 mph71%29.90 "Hg10 mi
8:53 PM82 °FPassing clouds.6 mph67%29.88 "Hg10 mi
7:53 PM86 °FPassing clouds.7 mph59%29.87 "Hg10 mi
6:53 PM89 °FScattered clouds.8 mph53%29.87 "Hg10 mi
5:53 PM90 °FPassing clouds.6 mph48%29.88 "Hg10 mi
4:53 PM90 °FPassing clouds.3 mph47%29.88 "Hg10 mi
Weather by CustomWeather, © 2015

See weather overviewHow to use our weather pages